Time,TemperatureF,DewpointF,PressureIn,WindDirection,WindDirectionDegrees,WindSpeedMPH,WindSpeedGustMPH,Humidity,HourlyPrecipIn,Conditions,Clouds,dailyrainin,SolarRadiationWatts/m^2,SoftwareType,DateUTC
2013-07-29 00:01:00,67.2,66.0,30.01,ENE,65,0.0,1.0,96,0.00,,,0.00,0.0,WUHU216DAVISVP2,2013-07-29 04:01:00,
2013-07-29 00:02:00,67.2,66.0,30.01,ENE,65,0.0,1.0,96,0.00,,,0.00,0.0,WUHU216DAVISVP2,2013-07-29 04:02:00,
2013-07-29 00:07:00,67.2,66.0,30.01,ENE,65,0.0,2.0,96,0.00,,,0.00,0.0,WUHU216DAVISVP2,2013-07-29 04:07:00,
2013-07-29 00:12:00,67.2,66.0,30.01,ENE,65,0.0,2.0,96,0.00,,,0.00,0.0,WUHU216DAVISVP2,2013-07-29 04:12:00,
2013-07-29 00:17:00,67.2,66.0,30.01,ENE,65,0.0,2.0,96,0.00,,,0.00,0.0,WUHU216DAVISVP2,2013-07-29 04:17:00,
2013-07-29 00:22:00,67.2,66.0,30.01,NE,38,1.0,4.0,96,0.00,,,0.00,0.0,WUHU216DAVISVP2,2013-07-29 04:22:00,
2013-07-29 00:27:00,67.2,66.0,30.01,NE,36,0.0,4.0,96,0.00,,,0.00,0.0,WUHU216DAVISVP2,2013-07-29 04:27:00,
2013-07-29 00:32:00,67.1,65.9,30.01,ENE,64,2.0,4.0,96,0.00,,,0.00,0.0,WUHU216DAVISVP2,2013-07-29 04:32:00,
2013-07-29 00:37:00,67.0,65.8,30.01,NE,41,0.0,4.0,96,0.00,,,0.00,0.0,WUHU216DAVISVP2,2013-07-29 04:37:00,
2013-07-29 00:42:00,66.9,65.7,30.01,ENE,59,1.0,3.0,96,0.00,,,0.00,0.0,WUHU216DAVISVP2,2013-07-29 04:42:00,
2013-07-29 00:47:00,66.9,65.7,30.02,NNE,14,0.0,3.0,96,0.00,,,0.00,0.0,WUHU216DAVISVP2,2013-07-29 04:47:00,
2013-07-29 00:52:00,66.8,65.9,30.02,ENE,63,0.0,3.0,97,0.00,,,0.00,0.0,WUHU216DAVISVP2,2013-07-29 04:52:00,
2013-07-29 00:57:00,66.7,65.5,30.01,NE,39,1.0,3.0,96,0.00,,,0.00,0.0,WUHU216DAVISVP2,2013-07-29 04:57:00,
2013-07-29 01:02:00,66.7,65.5,30.01,NE,39,1.0,2.0,96,0.00,,,0.00,0.0,WUHU216DAVISVP2,2013-07-29 05:02:00,
2013-07-29 01:07:00,66.6,65.7,30.01,NE,39,1.0,2.0,97,0.00,,,0.00,0.0,WUHU216DAVISVP2,2013-07-29 05:07:00,
2013-07-29 01:12:00,66.5,65.3,30.01,SSW,210,1.0,3.0,96,0.00,,,0.00,0.0,WUHU216DAVISVP2,2013-07-29 05:12:00,
2013-07-29 01:17:00,66.3,65.1,30.00,SSW,210,1.0,3.0,96,0.00,,,0.00,0.0,WUHU216DAVISVP2,2013-07-29 05:17:00,
2013-07-29 01:22:00,66.3,65.1,30.00,NE,50,1.0,3.0,96,0.00,,,0.00,0.0,WUHU216DAVISVP2,2013-07-29 05:22:00,
2013-07-29 01:27:00,66.2,65.0,30.00,NE,56,0.0,3.0,96,0.00,,,0.00,0.0,WUHU216DAVISVP2,2013-07-29 05:27:00,
2013-07-29 01:32:00,66.2,65.3,30.00,NNE,27,0.0,3.0,97,0.00,,,0.00,0.0,WUHU216DAVISVP2,2013-07-29 05:32:00,
2013-07-29 01:37:00,66.2,65.0,30.00,West,279,1.0,3.0,96,0.00,,,0.00,0.0,WUHU216DAVISVP2,2013-07-29 05:37:00,
2013-07-29 01:42:00,66.3,65.4,30.00,West,279,0.0,3.0,97,0.00,,,0.00,0.0,WUHU216DAVISVP2,2013-07-29 05:42:00,
2013-07-29 01:47:00,66.3,65.1,30.00,West,279,0.0,3.0,96,0.00,,,0.00,0.0,WUHU216DAVISVP2,2013-07-29 05:47:00,
2013-07-29 01:52:00,66.3,65.1,30.00,West,279,0.0,3.0,96,0.00,,,0.00,0.0,WUHU216DAVISVP2,2013-07-29 05:52:00,
2013-07-29 01:57:00,66.2,65.0,30.00,NW,309,0.0,2.0,96,0.00,,,0.00,0.0,WUHU216DAVISVP2,2013-07-29 05:57:00,
2013-07-29 02:02:00,66.1,64.9,30.00,NW,317,1.0,2.0,96,0.00,,,0.00,0.0,WUHU216DAVISVP2,2013-07-29 06:02:00,
2013-07-29 02:07:00,66.2,65.0,30.00,NW,317,2.0,2.0,96,0.00,,,0.00,0.0,WUHU216DAVISVP2,2013-07-29 06:07:00,
2013-07-29 02:12:00,66.1,64.9,29.99,NW,317,0.0,2.0,96,0.00,,,0.00,0.0,WUHU216DAVISVP2,2013-07-29 06:12:00,
2013-07-29 02:17:00,66.2,65.0,29.99,NW,317,0.0,2.0,96,0.00,,,0.00,0.0,WUHU216DAVISVP2,2013-07-29 06:17:00,
2013-07-29 02:22:00,66.2,65.0,30.00,NW,317,0.0,2.0,96,0.00,,,0.00,0.0,WUHU216DAVISVP2,2013-07-29 06:22:00,
2013-07-29 02:27:00,66.2,65.0,30.00,NW,317,0.0,1.0,96,0.00,,,0.00,0.0,WUHU216DAVISVP2,2013-07-29 06:27:00,
2013-07-29 02:32:00,66.1,64.9,30.00,NW,319,0.0,2.0,96,0.00,,,0.00,0.0,WUHU216DAVISVP2,2013-07-29 06:32:00,
2013-07-29 02:37:00,66.1,64.9,30.00,NW,309,0.0,2.0,96,0.00,,,0.00,0.0,WUHU216DAVISVP2,2013-07-29 06:37:00,
2013-07-29 02:42:00,66.1,64.9,30.00,NNE,26,1.0,2.0,96,0.00,,,0.00,0.0,WUHU216DAVISVP2,2013-07-29 06:42:00,
2013-07-29 02:47:00,66.1,64.9,30.00,NNE,28,0.0,2.0,96,0.00,,,0.00,0.0,WUHU216DAVISVP2,2013-07-29 06:47:00,
2013-07-29 02:52:00,66.1,64.9,29.99,NNE,28,0.0,2.0,96,0.00,,,0.00,0.0,WUHU216DAVISVP2,2013-07-29 06:52:00,
2013-07-29 02:57:00,66.0,64.8,30.00,NW,311,0.0,2.0,96,0.00,,,0.00,0.0,WUHU216DAVISVP2,2013-07-29 06:57:00,
2013-07-29 03:02:00,65.9,65.0,30.00,NNE,19,2.0,2.0,97,0.00,,,0.00,0.0,WUHU216DAVISVP2,2013-07-29 07:02:00,
2013-07-29 03:07:00,66.0,65.1,30.00,NNE,19,0.0,2.0,97,0.00,,,0.00,0.0,WUHU216DAVISVP2,2013-07-29 07:07:00,
2013-07-29 03:12:00,65.9,65.0,30.00,North,5,1.0,2.0,97,0.00,,,0.00,0.0,WUHU216DAVISVP2,2013-07-29 07:12:00,
2013-07-29 03:17:00,65.9,65.0,29.99,NE,55,1.0,2.0,97,0.00,,,0.00,0.0,WUHU216DAVISVP2,2013-07-29 07:17:00,
2013-07-29 03:22:00,65.9,65.0,29.99,NE,55,0.0,2.0,97,0.00,,,0.00,0.0,WUHU216DAVISVP2,2013-07-29 07:22:00,
2013-07-29 03:27:00,65.9,65.0,29.99,NE,55,0.0,2.0,97,0.00,,,0.00,0.0,WUHU216DAVISVP2,2013-07-29 07:27:00,
2013-07-29 03:32:00,65.9,65.0,29.99,NE,55,0.0,2.0,97,0.00,,,0.00,0.0,WUHU216DAVISVP2,2013-07-29 07:32:00,
2013-07-29 03:37:00,65.8,64.9,30.00,NE,55,0.0,1.0,97,0.00,,,0.00,0.0,WUHU216DAVISVP2,2013-07-29 07:37:00,
2013-07-29 03:42:00,65.9,65.0,29.99,NE,55,0.0,1.0,97,0.00,,,0.00,0.0,WUHU216DAVISVP2,2013-07-29 07:42:00,
2013-07-29 03:47:00,65.9,65.0,29.99,NNE,22,1.0,2.0,97,0.00,,,0.00,0.0,WUHU216DAVISVP2,2013-07-29 07:47:00,
2013-07-29 03:52:00,65.9,65.0,29.99,NNE,22,0.0,2.0,97,0.00,,,0.00,0.0,WUHU216DAVISVP2,2013-07-29 07:52:00,
2013-07-29 03:57:00,65.9,65.0,29.99,NNE,22,0.0,2.0,97,0.00,,,0.00,0.0,WUHU216DAVISVP2,2013-07-29 07:57:00,
2013-07-29 04:02:00,65.9,65.0,30.00,NNE,22,0.0,2.0,97,0.00,,,0.00,0.0,WUHU216DAVISVP2,2013-07-29 08:02:00,
2013-07-29 04:07:00,65.9,65.0,30.00,NNE,22,0.0,1.0,97,0.00,,,0.00,0.0,WUHU216DAVISVP2,2013-07-29 08:07:00,
2013-07-29 04:12:00,66.0,65.1,30.00,NNE,17,1.0,1.0,97,0.00,,,0.00,0.0,WUHU216DAVISVP2,2013-07-29 08:12:00,
2013-07-29 04:17:00,65.9,65.0,30.00,North,355,0.0,2.0,97,0.00,,,0.00,0.0,WUHU216DAVISVP2,2013-07-29 08:17:00,
2013-07-29 04:22:00,65.9,65.0,30.00,North,355,0.0,2.0,97,0.00,,,0.00,0.0,WUHU216DAVISVP2,2013-07-29 08:22:00,
2013-07-29 04:27:00,65.9,65.0,30.00,North,355,0.0,2.0,97,0.00,,,0.00,0.0,WUHU216DAVISVP2,2013-07-29 08:27:00,
2013-07-29 04:32:00,65.9,65.0,29.99,North,355,0.0,2.0,97,0.00,,,0.00,0.0,WUHU216DAVISVP2,2013-07-29 08:32:00,
2013-07-29 04:37:00,65.9,65.0,30.00,North,355,0.0,2.0,97,0.00,,,0.00,0.0,WUHU216DAVISVP2,2013-07-29 08:37:00,
2013-07-29 04:42:00,65.9,65.0,30.00,North,355,0.0,1.0,97,0.00,,,0.00,0.0,WUHU216DAVISVP2,2013-07-29 08:42:00,
2013-07-29 04:47:00,65.8,64.9,30.00,North,355,0.0,1.0,97,0.00,,,0.00,0.0,WUHU216DAVISVP2,2013-07-29 08:47:00,
2013-07-29 04:52:00,65.8,64.9,30.00,North,355,0.0,1.0,97,0.00,,,0.00,0.0,WUHU216DAVISVP2,2013-07-29 08:52:00,
2013-07-29 04:57:00,65.9,65.0,30.00,North,355,0.0,1.0,97,0.00,,,0.00,0.0,WUHU216DAVISVP2,2013-07-29 08:57:00,
2013-07-29 05:02:00,65.8,64.9,30.00,North,355,0.0,1.0,97,0.00,,,0.00,0.0,WUHU216DAVISVP2,2013-07-29 09:02:00,
2013-07-29 05:07:00,65.8,64.9,30.00,North,355,0.0,1.0,97,0.00,,,0.00,0.0,WUHU216DAVISVP2,2013-07-29 09:07:00,
2013-07-29 05:12:00,65.8,64.9,30.00,North,355,0.0,1.0,97,0.00,,,0.00,0.0,WUHU216DAVISVP2,2013-07-29 09:12:00,
2013-07-29 05:17:00,65.8,64.9,30.00,North,355,0.0,0.0,97,0.00,,,0.00,0.0,WUHU216DAVISVP2,2013-07-29 09:17:00,
2013-07-29 05:22:00,65.8,64.9,30.00,North,355,0.0,0.0,97,0.00,,,0.00,0.0,WUHU216DAVISVP2,2013-07-29 09:22:00,
2013-07-29 05:27:00,65.8,64.9,30.00,North,355,0.0,0.0,97,0.00,,,0.00,0.0,WUHU216DAVISVP2,2013-07-29 09:27:00,
2013-07-29 05:32:00,65.7,64.8,30.00,North,355,0.0,0.0,97,0.00,,,0.00,0.0,WUHU216DAVISVP2,2013-07-29 09:32:00,
2013-07-29 05:37:00,65.8,64.9,29.99,North,355,0.0,0.0,97,0.00,,,0.00,0.0,WUHU216DAVISVP2,2013-07-29 09:37:00,
2013-07-29 05:42:00,65.8,64.9,30.00,North,355,0.0,1.0,97,0.00,,,0.00,0.0,WUHU216DAVISVP2,2013-07-29 09:42:00,
2013-07-29 05:47:00,65.9,65.0,30.00,North,355,0.0,1.0,97,0.00,,,0.00,0.0,WUHU216DAVISVP2,2013-07-29 09:47:00,
2013-07-29 05:52:00,65.8,64.9,30.00,North,355,0.0,1.0,97,0.00,,,0.00,5.0,WUHU216DAVISVP2,2013-07-29 09:52:00,
2013-07-29 05:57:00,65.9,65.0,30.00,North,355,0.0,1.0,97,0.00,,,0.00,5.0,WUHU216DAVISVP2,2013-07-29 09:57:00,
2013-07-29 06:03:00,66.0,65.1,30.00,North,355,0.0,1.0,97,0.00,,,0.00,5.0,WUHU216DAVISVP2,2013-07-29 10:03:00,
2013-07-29 06:08:00,66.1,65.2,30.01,North,355,0.0,1.0,97,0.00,,,0.00,5.0,WUHU216DAVISVP2,2013-07-29 10:08:00,
2013-07-29 06:13:00,66.1,65.2,30.01,North,355,0.0,1.0,97,0.00,,,0.00,0.0,WUHU216DAVISVP2,2013-07-29 10:13:00,
2013-07-29 06:18:00,66.2,65.3,30.01,North,355,0.0,1.0,97,0.00,,,0.00,0.0,WUHU216DAVISVP2,2013-07-29 10:18:00,
2013-07-29 06:23:00,66.1,65.2,30.01,North,355,0.0,1.0,97,0.00,,,0.00,5.0,WUHU216DAVISVP2,2013-07-29 10:23:00,
2013-07-29 06:28:00,66.0,65.1,30.01,North,360,0.0,1.0,97,0.00,,,0.00,9.0,WUHU216DAVISVP2,2013-07-29 10:28:00,
2013-07-29 06:33:00,65.9,65.0,30.01,North,360,0.0,1.0,97,0.00,,,0.00,11.0,WUHU216DAVISVP2,2013-07-29 10:33:00,
2013-07-29 06:39:00,65.9,65.0,30.01,NE,49,0.0,2.0,97,0.00,,,0.00,12.0,WUHU216DAVISVP2,2013-07-29 10:39:00,
2013-07-29 06:44:00,65.9,65.0,30.01,NE,49,0.0,2.0,97,0.00,,,0.00,12.0,WUHU216DAVISVP2,2013-07-29 10:44:00,
2013-07-29 06:49:00,65.9,65.0,30.01,NE,49,0.0,2.0,97,0.00,,,0.00,9.0,WUHU216DAVISVP2,2013-07-29 10:49:00,
2013-07-29 06:54:00,65.9,65.0,30.01,NE,49,0.0,2.0,97,0.00,,,0.00,12.0,WUHU216DAVISVP2,2013-07-29 10:54:00,
2013-07-29 06:59:00,65.8,65.2,30.01,NE,49,0.0,2.0,98,0.00,,,0.00,19.0,WUHU216DAVISVP2,2013-07-29 10:59:00,
2013-07-29 07:04:00,65.9,65.3,30.01,NE,49,0.0,2.0,98,0.00,,,0.00,30.0,WUHU216DAVISVP2,2013-07-29 11:04:00,
2013-07-29 07:09:00,66.1,65.5,30.01,NE,49,1.0,2.0,98,0.00,,,0.00,39.0,WUHU216DAVISVP2,2013-07-29 11:09:00,
2013-07-29 07:14:00,66.0,65.1,30.00,NE,49,0.0,2.0,97,0.00,,,0.00,54.0,WUHU216DAVISVP2,2013-07-29 11:14:00,
2013-07-29 07:19:00,66.4,65.5,30.00,NE,49,0.0,2.0,97,0.00,,,0.00,65.0,WUHU216DAVISVP2,2013-07-29 11:19:00,
2013-07-29 07:24:00,66.5,65.6,30.00,NE,49,1.0,2.0,97,0.00,,,0.00,54.0,WUHU216DAVISVP2,2013-07-29 11:24:00,
2013-07-29 07:30:00,66.4,65.5,30.01,NE,55,0.0,2.0,97,0.00,,,0.00,44.0,WUHU216DAVISVP2,2013-07-29 11:30:00,
2013-07-29 07:35:00,66.4,65.5,30.01,NE,55,1.0,2.0,97,0.00,,,0.00,46.0,WUHU216DAVISVP2,2013-07-29 11:35:00,
2013-07-29 07:40:00,66.4,65.5,30.01,NE,55,1.0,2.0,97,0.00,,,0.00,63.0,WUHU216DAVISVP2,2013-07-29 11:40:00,
2013-07-29 07:45:00,66.4,65.5,30.01,North,5,0.0,2.0,97,0.00,,,0.00,62.0,WUHU216DAVISVP2,2013-07-29 11:45:00,
2013-07-29 07:50:00,66.4,65.5,30.01,North,5,0.0,2.0,97,0.00,,,0.00,28.0,WUHU216DAVISVP2,2013-07-29 11:50:00,
2013-07-29 07:56:00,66.4,65.5,30.01,North,5,1.0,2.0,97,0.00,,,0.00,54.0,WUHU216DAVISVP2,2013-07-29 11:56:00,
2013-07-29 08:01:00,66.6,65.7,30.01,North,5,0.0,2.0,97,0.00,,,0.00,56.0,WUHU216DAVISVP2,2013-07-29 12:01:00,
2013-07-29 08:06:00,66.7,65.8,30.01,North,5,1.0,2.0,97,0.00,,,0.00,37.0,WUHU216DAVISVP2,2013-07-29 12:06:00,
2013-07-29 08:11:00,66.7,65.8,30.01,NW,323,1.0,2.0,97,0.00,,,0.00,49.0,WUHU216DAVISVP2,2013-07-29 12:11:00,
2013-07-29 08:16:00,66.6,65.7,30.01,NW,323,1.0,2.0,97,0.00,,,0.00,56.0,WUHU216DAVISVP2,2013-07-29 12:16:00,
2013-07-29 08:21:00,66.8,65.9,30.02,NE,43,3.0,3.0,97,0.00,,,0.00,72.0,WUHU216DAVISVP2,2013-07-29 12:21:00,
2013-07-29 08:26:00,67.0,65.8,30.02,NE,43,1.0,3.0,96,0.00,,,0.00,56.0,WUHU216DAVISVP2,2013-07-29 12:26:00,
2013-07-29 08:31:00,67.0,65.8,30.02,WNW,299,1.0,3.0,96,0.00,,,0.00,54.0,WUHU216DAVISVP2,2013-07-29 12:31:00,
2013-07-29 08:36:00,66.9,65.7,30.02,NW,314,1.0,3.0,96,0.00,,,0.00,53.0,WUHU216DAVISVP2,2013-07-29 12:36:00,
2013-07-29 08:42:00,67.0,65.8,30.02,ENE,67,0.0,2.0,96,0.00,,,0.00,60.0,WUHU216DAVISVP2,2013-07-29 12:42:00,
2013-07-29 08:47:00,66.9,65.7,30.02,NW,321,0.0,2.0,96,0.00,,,0.00,67.0,WUHU216DAVISVP2,2013-07-29 12:47:00,
2013-07-29 08:52:00,67.1,66.2,30.02,NW,321,0.0,2.0,97,0.00,,,0.00,69.0,WUHU216DAVISVP2,2013-07-29 12:52:00,
2013-07-29 08:57:00,67.3,66.1,30.02,NW,321,1.0,2.0,96,0.00,,,0.00,72.0,WUHU216DAVISVP2,2013-07-29 12:57:00,
2013-07-29 09:02:00,67.1,65.9,30.02,ENE,64,1.0,3.0,96,0.00,,,0.00,100.0,WUHU216DAVISVP2,2013-07-29 13:02:00,
2013-07-29 09:08:00,67.3,66.1,30.02,ENE,66,1.0,3.0,96,0.00,,,0.00,91.0,WUHU216DAVISVP2,2013-07-29 13:08:00,
2013-07-29 09:13:00,67.4,66.2,30.02,ENE,61,1.0,3.0,96,0.00,,,0.00,127.0,WUHU216DAVISVP2,2013-07-29 13:13:00,
2013-07-29 09:18:00,67.7,66.5,30.02,ENE,61,0.0,3.0,96,0.00,,,0.00,167.0,WUHU216DAVISVP2,2013-07-29 13:18:00,
2013-07-29 09:23:00,68.3,67.1,30.02,NNE,29,1.0,3.0,96,0.00,,,0.00,171.0,WUHU216DAVISVP2,2013-07-29 13:23:00,
2013-07-29 09:28:00,68.2,66.7,30.02,NW,306,0.0,3.0,95,0.00,,,0.00,197.0,WUHU216DAVISVP2,2013-07-29 13:28:00,
2013-07-29 09:33:00,68.5,66.7,30.02,West,281,2.0,3.0,94,0.00,,,0.00,229.0,WUHU216DAVISVP2,2013-07-29 13:33:00,
2013-07-29 09:38:00,68.9,67.1,30.02,NW,310,1.0,3.0,94,0.00,,,0.00,334.0,WUHU216DAVISVP2,2013-07-29 13:38:00,
2013-07-29 09:43:00,69.3,67.2,30.02,WNW,284,2.0,3.0,93,0.00,,,0.00,309.0,WUHU216DAVISVP2,2013-07-29 13:43:00,
2013-07-29 09:48:00,69.1,67.0,30.02,WNW,290,1.0,4.0,93,0.00,,,0.00,346.0,WUHU216DAVISVP2,2013-07-29 13:48:00,
2013-07-29 09:53:00,71.1,69.6,30.03,SE,134,1.0,4.0,95,0.00,,,0.00,759.0,WUHU216DAVISVP2,2013-07-29 13:53:00,
2013-07-29 09:58:00,72.9,69.1,30.03,WNW,295,2.0,4.0,88,0.00,,,0.00,724.0,WUHU216DAVISVP2,2013-07-29 13:58:00,
2013-07-29 10:03:00,72.3,68.9,30.03,NE,55,3.0,4.0,89,0.00,,,0.00,504.0,WUHU216DAVISVP2,2013-07-29 14:03:00,
2013-07-29 10:08:00,72.8,69.7,30.02,NNE,14,1.0,4.0,90,0.00,,,0.00,770.0,WUHU216DAVISVP2,2013-07-29 14:08:00,
2013-07-29 10:13:00,72.4,69.0,30.02,West,275,1.0,4.0,89,0.00,,,0.00,724.0,WUHU216DAVISVP2,2013-07-29 14:13:00,
2013-07-29 10:18:00,74.2,69.8,30.02,NE,54,1.0,4.0,86,0.00,,,0.00,719.0,WUHU216DAVISVP2,2013-07-29 14:18:00,
2013-07-29 10:23:00,73.5,69.7,30.02,East,81,1.0,4.0,88,0.00,,,0.00,777.0,WUHU216DAVISVP2,2013-07-29 14:23:00,
2013-07-29 10:28:00,75.0,70.2,30.02,WNW,287,2.0,4.0,85,0.00,,,0.00,826.0,WUHU216DAVISVP2,2013-07-29 14:28:00,
2013-07-29 10:33:00,74.6,69.4,30.02,WNW,302,1.0,3.0,84,0.00,,,0.00,854.0,WUHU216DAVISVP2,2013-07-29 14:33:00,
2013-07-29 10:38:00,73.8,68.7,30.02,West,268,2.0,3.0,84,0.00,,,0.00,993.0,WUHU216DAVISVP2,2013-07-29 14:38:00,
2013-07-29 10:44:00,73.8,69.0,30.02,NW,319,0.0,4.0,85,0.00,,,0.00,995.0,WUHU216DAVISVP2,2013-07-29 14:44:00,
2013-07-29 10:49:00,73.0,67.9,30.02,SW,234,2.0,6.0,84,0.00,,,0.00,615.0,WUHU216DAVISVP2,2013-07-29 14:49:00,
2013-07-29 10:54:00,74.1,70.0,30.02,East,82,5.0,7.0,87,0.00,,,0.00,615.0,WUHU216DAVISVP2,2013-07-29 14:54:00,
2013-07-29 10:59:00,74.7,68.9,30.02,WNW,286,1.0,7.0,82,0.00,,,0.00,919.0,WUHU216DAVISVP2,2013-07-29 14:59:00,
2013-07-29 11:05:00,74.4,69.6,30.02,NNE,28,1.0,7.0,85,0.00,,,0.00,856.0,WUHU216DAVISVP2,2013-07-29 15:05:00,
2013-07-29 11:10:00,75.1,69.3,30.02,WNW,290,2.0,6.0,82,0.00,,,0.00,898.0,WUHU216DAVISVP2,2013-07-29 15:10:00,
2013-07-29 11:15:00,74.0,69.2,30.02,West,264,1.0,4.0,85,0.00,,,0.00,933.0,WUHU216DAVISVP2,2013-07-29 15:15:00,
2013-07-29 11:20:00,74.8,68.6,30.02,WNW,287,3.0,4.0,81,0.00,,,0.00,473.0,WUHU216DAVISVP2,2013-07-29 15:20:00,
2013-07-29 11:25:00,75.6,69.4,30.02,North,355,1.0,4.0,81,0.00,,,0.00,889.0,WUHU216DAVISVP2,2013-07-29 15:25:00,
2013-07-29 11:30:00,75.3,68.8,30.01,NW,321,2.0,3.0,80,0.00,,,0.00,888.0,WUHU216DAVISVP2,2013-07-29 15:30:00,
2013-07-29 11:35:00,75.4,68.9,30.01,WNW,288,2.0,3.0,80,0.00,,,0.00,921.0,WUHU216DAVISVP2,2013-07-29 15:35:00,
2013-07-29 11:40:00,75.5,68.6,30.01,West,263,1.0,4.0,79,0.00,,,0.00,918.0,WUHU216DAVISVP2,2013-07-29 15:40:00,
2013-07-29 11:45:00,76.2,70.0,30.01,West,266,2.0,4.0,81,0.00,,,0.00,911.0,WUHU216DAVISVP2,2013-07-29 15:45:00,
2013-07-29 11:50:00,78.6,73.1,30.01,NW,312,1.0,4.0,83,0.00,,,0.00,932.0,WUHU216DAVISVP2,2013-07-29 15:50:00,
2013-07-29 11:55:00,78.2,71.3,30.01,WSW,239,2.0,4.0,79,0.00,,,0.00,1000.0,WUHU216DAVISVP2,2013-07-29 15:55:00,
2013-07-29 12:00:00,78.7,71.0,30.01,ENE,75,5.0,6.0,77,0.00,,,0.00,889.0,WUHU216DAVISVP2,2013-07-29 16:00:00,
2013-07-29 12:05:00,78.4,69.2,30.01,NE,34,1.0,6.0,73,0.00,,,0.00,826.0,WUHU216DAVISVP2,2013-07-29 16:05:00,
2013-07-29 12:10:00,77.3,71.5,30.00,WNW,294,3.0,6.0,82,0.00,,,0.00,940.0,WUHU216DAVISVP2,2013-07-29 16:10:00,
2013-07-29 12:15:00,76.9,68.9,30.00,WSW,250,2.0,8.0,76,0.00,,,0.00,946.0,WUHU216DAVISVP2,2013-07-29 16:15:00,
2013-07-29 12:20:00,77.7,69.9,30.00,NE,40,2.0,8.0,77,0.00,,,0.00,926.0,WUHU216DAVISVP2,2013-07-29 16:20:00,
2013-07-29 12:25:00,78.4,69.8,30.00,North,355,2.0,8.0,75,0.00,,,0.00,932.0,WUHU216DAVISVP2,2013-07-29 16:25:00,
2013-07-29 12:30:00,79.2,71.4,30.00,ENE,59,2.0,8.0,77,0.00,,,0.00,935.0,WUHU216DAVISVP2,2013-07-29 16:30:00,
2013-07-29 12:36:00,79.2,70.0,29.99,WNW,288,4.0,8.0,73,0.00,,,0.00,946.0,WUHU216DAVISVP2,2013-07-29 16:36:00,
2013-07-29 12:42:00,79.1,71.4,29.99,NW,317,2.0,8.0,77,0.00,,,0.00,947.0,WUHU216DAVISVP2,2013-07-29 16:42:00,
2013-07-29 12:47:00,79.2,71.1,29.99,NE,47,2.0,8.0,76,0.00,,,0.00,942.0,WUHU216DAVISVP2,2013-07-29 16:47:00,
2013-07-29 12:52:00,79.0,69.0,29.99,WNW,301,2.0,8.0,71,0.00,,,0.00,949.0,WUHU216DAVISVP2,2013-07-29 16:52:00,
2013-07-29 12:57:00,79.8,72.5,29.99,NNW,341,0.0,7.0,78,0.00,,,0.00,947.0,WUHU216DAVISVP2,2013-07-29 16:57:00,
2013-07-29 13:02:00,80.1,69.2,29.99,SE,137,1.0,7.0,69,0.00,,,0.00,942.0,WUHU216DAVISVP2,2013-07-29 17:02:00,
2013-07-29 13:07:00,81.0,69.0,29.99,NNW,329,1.0,7.0,67,0.00,,,0.00,954.0,WUHU216DAVISVP2,2013-07-29 17:07:00,
2013-07-29 13:12:00,81.1,70.0,29.99,NNE,14,4.0,7.0,69,0.00,,,0.00,956.0,WUHU216DAVISVP2,2013-07-29 17:12:00,
2013-07-29 13:18:00,81.9,68.8,29.98,East,100,1.0,6.0,64,0.00,,,0.00,946.0,WUHU216DAVISVP2,2013-07-29 17:18:00,
2013-07-29 13:23:00,81.6,71.9,29.98,WSW,258,1.0,6.0,72,0.00,,,0.00,947.0,WUHU216DAVISVP2,2013-07-29 17:23:00,
2013-07-29 13:28:00,81.4,71.3,29.98,North,360,2.0,6.0,71,0.00,,,0.00,944.0,WUHU216DAVISVP2,2013-07-29 17:28:00,
2013-07-29 13:33:00,81.7,69.5,29.99,NW,323,1.0,6.0,66,0.00,,,0.00,933.0,WUHU216DAVISVP2,2013-07-29 17:33:00,
2013-07-29 13:38:00,80.5,69.6,29.98,East,80,4.0,9.0,69,0.00,,,0.00,951.0,WUHU216DAVISVP2,2013-07-29 17:38:00,
2013-07-29 13:43:00,80.5,69.2,29.98,WSW,253,1.0,9.0,68,0.00,,,0.00,935.0,WUHU216DAVISVP2,2013-07-29 17:43:00,
2013-07-29 13:48:00,81.8,68.4,29.98,North,360,1.0,9.0,64,0.00,,,0.00,942.0,WUHU216DAVISVP2,2013-07-29 17:48:00,
2013-07-29 13:53:00,81.0,68.1,29.98,WNW,298,3.0,9.0,65,0.00,,,0.00,979.0,WUHU216DAVISVP2,2013-07-29 17:53:00,
2013-07-29 13:58:00,80.8,68.6,29.98,WSW,251,4.0,7.0,66,0.00,,,0.00,378.0,WUHU216DAVISVP2,2013-07-29 17:58:00,
2013-07-29 14:03:00,79.4,68.1,29.98,North,355,2.0,7.0,68,0.00,,,0.00,230.0,WUHU216DAVISVP2,2013-07-29 18:03:00,
2013-07-29 14:08:00,81.5,69.7,29.98,NNE,24,2.0,7.0,67,0.00,,,0.00,946.0,WUHU216DAVISVP2,2013-07-29 18:08:00,
2013-07-29 14:13:00,82.0,70.6,29.98,WNW,290,2.0,7.0,68,0.00,,,0.00,220.0,WUHU216DAVISVP2,2013-07-29 18:13:00,
2013-07-29 14:18:00,82.9,69.3,29.97,WSW,251,2.0,5.0,63,0.00,,,0.00,953.0,WUHU216DAVISVP2,2013-07-29 18:18:00,
2013-07-29 14:24:00,81.5,68.4,29.97,WNW,300,2.0,6.0,64,0.00,,,0.00,942.0,WUHU216DAVISVP2,2013-07-29 18:24:00,
2013-07-29 14:29:00,81.3,68.2,29.97,NNW,340,3.0,6.0,64,0.00,,,0.00,946.0,WUHU216DAVISVP2,2013-07-29 18:29:00,
2013-07-29 14:34:00,81.1,68.0,29.96,NW,309,3.0,6.0,64,0.00,,,0.00,197.0,WUHU216DAVISVP2,2013-07-29 18:34:00,
2013-07-29 14:39:00,81.9,70.1,29.95,SSE,149,1.0,8.0,67,0.00,,,0.00,918.0,WUHU216DAVISVP2,2013-07-29 18:39:00,
2013-07-29 14:44:00,83.2,69.8,29.95,ENE,69,3.0,8.0,64,0.00,,,0.00,879.0,WUHU216DAVISVP2,2013-07-29 18:44:00,
2013-07-29 14:49:00,82.4,68.5,29.95,West,265,3.0,8.0,63,0.00,,,0.00,900.0,WUHU216DAVISVP2,2013-07-29 18:49:00,
2013-07-29 14:54:00,82.4,68.8,29.95,NE,39,0.0,8.0,63,0.00,,,0.00,209.0,WUHU216DAVISVP2,2013-07-29 18:54:00,
2013-07-29 15:00:00,80.7,68.1,29.95,ENE,78,1.0,6.0,65,0.00,,,0.00,109.0,WUHU216DAVISVP2,2013-07-29 19:00:00,
2013-07-29 15:05:00,79.7,68.4,29.96,NNE,17,1.0,6.0,68,0.00,,,0.00,77.0,WUHU216DAVISVP2,2013-07-29 19:05:00,
2013-07-29 15:10:00,79.1,68.7,29.96,NNE,17,3.0,6.0,70,0.00,,,0.00,142.0,WUHU216DAVISVP2,2013-07-29 19:10:00,
2013-07-29 15:15:00,77.5,67.8,29.96,NW,326,2.0,6.0,72,0.00,,,0.00,88.0,WUHU216DAVISVP2,2013-07-29 19:15:00,
2013-07-29 15:20:00,74.2,63.8,29.96,WSW,257,2.0,5.0,70,0.00,,,0.00,63.0,WUHU216DAVISVP2,2013-07-29 19:20:00,
2013-07-29 15:25:00,73.1,65.2,29.96,WNW,290,1.0,5.0,76,0.00,,,0.00,25.0,WUHU216DAVISVP2,2013-07-29 19:25:00,
2013-07-29 15:30:00,72.1,64.3,29.96,SE,128,4.0,6.0,76,0.00,,,0.00,19.0,WUHU216DAVISVP2,2013-07-29 19:30:00,
2013-07-29 15:36:00,71.3,64.5,29.96,ENE,71,2.0,6.0,79,0.00,,,0.00,35.0,WUHU216DAVISVP2,2013-07-29 19:36:00,
2013-07-29 15:41:00,70.6,64.8,29.95,NW,316,1.0,6.0,82,0.00,,,0.00,30.0,WUHU216DAVISVP2,2013-07-29 19:41:00,
2013-07-29 15:46:00,70.1,64.7,29.96,ENE,78,1.0,6.0,83,0.00,,,0.00,30.0,WUHU216DAVISVP2,2013-07-29 19:46:00,
2013-07-29 15:51:00,69.7,64.7,29.97,SSW,203,0.0,4.0,84,0.01,,,0.01,49.0,WUHU216DAVISVP2,2013-07-29 19:51:00,
2013-07-29 15:56:00,69.4,66.0,29.97,East,84,0.0,4.0,89,0.05,,,0.06,70.0,WUHU216DAVISVP2,2013-07-29 19:56:00,
2013-07-29 16:01:00,68.5,65.8,29.98,South,184,2.0,4.0,91,0.07,,,0.07,56.0,WUHU216DAVISVP2,2013-07-29 20:01:00,
2013-07-29 16:07:00,68.5,66.7,29.98,NE,56,3.0,4.0,94,0.17,,,0.17,62.0,WUHU216DAVISVP2,2013-07-29 20:07:00,
2013-07-29 16:12:00,67.9,66.1,29.97,NNE,32,1.0,4.0,94,0.19,,,0.19,221.0,WUHU216DAVISVP2,2013-07-29 20:12:00,
2013-07-29 16:17:00,68.5,67.3,29.96,NNW,344,0.0,4.0,96,0.19,,,0.19,355.0,WUHU216DAVISVP2,2013-07-29 20:17:00,
2013-07-29 16:22:00,71.1,70.2,29.95,WSW,257,1.0,4.0,97,0.19,,,0.19,712.0,WUHU216DAVISVP2,2013-07-29 20:22:00,
2013-07-29 16:27:00,72.0,69.2,29.96,SSE,158,1.0,4.0,91,0.19,,,0.19,325.0,WUHU216DAVISVP2,2013-07-29 20:27:00,
2013-07-29 16:33:00,72.9,71.4,29.96,SSE,158,1.0,4.0,95,0.19,,,0.19,255.0,WUHU216DAVISVP2,2013-07-29 20:33:00,
2013-07-29 16:38:00,74.3,72.4,29.96,SSE,158,1.0,4.0,94,0.19,,,0.19,670.0,WUHU216DAVISVP2,2013-07-29 20:38:00,
2013-07-29 16:43:00,74.7,71.9,29.97,NE,45,1.0,4.0,91,0.19,,,0.19,160.0,WUHU216DAVISVP2,2013-07-29 20:43:00,
2013-07-29 16:48:00,73.3,69.5,29.97,NNW,337,1.0,3.0,88,0.19,,,0.19,128.0,WUHU216DAVISVP2,2013-07-29 20:48:00,
2013-07-29 16:53:00,72.4,69.0,29.97,NNE,24,1.0,3.0,89,0.18,,,0.19,155.0,WUHU216DAVISVP2,2013-07-29 20:53:00,
2013-07-29 16:58:00,71.8,68.7,29.97,ESE,118,0.0,3.0,90,0.13,,,0.19,158.0,WUHU216DAVISVP2,2013-07-29 20:58:00,
2013-07-29 17:03:00,71.3,69.1,29.97,ESE,109,1.0,3.0,93,0.09,,,0.19,125.0,WUHU216DAVISVP2,2013-07-29 21:03:00,
2013-07-29 17:08:00,71.4,69.2,29.97,ENE,75,1.0,3.0,93,0.00,,,0.19,118.0,WUHU216DAVISVP2,2013-07-29 21:08:00,
2013-07-29 17:13:00,71.5,69.3,29.97,ENE,75,0.0,2.0,93,0.00,,,0.19,123.0,WUHU216DAVISVP2,2013-07-29 21:13:00,
2013-07-29 17:18:00,71.3,69.1,29.97,ENE,74,1.0,2.0,93,0.00,,,0.19,116.0,WUHU216DAVISVP2,2013-07-29 21:18:00,
2013-07-29 17:23:00,72.5,71.0,29.97,ENE,74,0.0,2.0,95,0.00,,,0.19,468.0,WUHU216DAVISVP2,2013-07-29 21:23:00,
2013-07-29 17:28:00,73.4,71.3,29.97,ENE,74,0.0,2.0,93,0.00,,,0.19,524.0,WUHU216DAVISVP2,2013-07-29 21:28:00,
2013-07-29 17:34:00,74.3,72.1,29.97,ENE,74,0.0,2.0,93,0.00,,,0.19,429.0,WUHU216DAVISVP2,2013-07-29 21:34:00,
2013-07-29 17:39:00,74.4,70.6,29.97,South,187,0.0,3.0,88,0.00,,,0.19,415.0,WUHU216DAVISVP2,2013-07-29 21:39:00,
2013-07-29 17:44:00,74.2,71.4,29.97,WSW,238,1.0,3.0,91,0.00,,,0.19,448.0,WUHU216DAVISVP2,2013-07-29 21:44:00,
2013-07-29 17:49:00,74.4,70.6,29.97,South,181,0.0,3.0,88,0.00,,,0.19,134.0,WUHU216DAVISVP2,2013-07-29 21:49:00,
2013-07-29 17:54:00,73.8,69.4,29.96,South,181,0.0,3.0,86,0.00,,,0.19,67.0,WUHU216DAVISVP2,2013-07-29 21:54:00,
2013-07-29 17:59:00,73.0,69.6,29.96,South,179,1.0,3.0,89,0.00,,,0.19,58.0,WUHU216DAVISVP2,2013-07-29 21:59:00,
2013-07-29 18:04:00,72.2,69.1,29.96,South,178,1.0,2.0,90,0.00,,,0.19,54.0,WUHU216DAVISVP2,2013-07-29 22:04:00,
2013-07-29 18:09:00,71.6,69.1,29.97,South,178,0.0,2.0,92,0.00,,,0.19,58.0,WUHU216DAVISVP2,2013-07-29 22:09:00,
2013-07-29 18:14:00,71.5,69.3,29.97,East,80,1.0,2.0,93,0.00,,,0.19,60.0,WUHU216DAVISVP2,2013-07-29 22:14:00,
2013-07-29 18:19:00,71.1,68.6,29.97,East,80,0.0,2.0,92,0.00,,,0.19,62.0,WUHU216DAVISVP2,2013-07-29 22:19:00,
2013-07-29 18:24:00,71.3,68.5,29.98,NNE,19,1.0,2.0,91,0.00,,,0.19,63.0,WUHU216DAVISVP2,2013-07-29 22:24:00,
2013-07-29 18:29:00,71.4,68.6,29.98,NNE,25,0.0,2.0,91,0.00,,,0.19,81.0,WUHU216DAVISVP2,2013-07-29 22:29:00,
2013-07-29 18:34:00,71.5,69.0,29.98,NNE,25,1.0,2.0,92,0.00,,,0.19,79.0,WUHU216DAVISVP2,2013-07-29 22:34:00,
2013-07-29 18:39:00,71.7,69.2,29.99,NNE,25,0.0,3.0,92,0.00,,,0.19,97.0,WUHU216DAVISVP2,2013-07-29 22:39:00,
2013-07-29 18:44:00,72.1,69.0,29.99,SSE,163,0.0,3.0,90,0.00,,,0.19,104.0,WUHU216DAVISVP2,2013-07-29 22:44:00,
2013-07-29 18:49:00,72.3,68.5,29.99,NNE,26,2.0,5.0,88,0.00,,,0.19,97.0,WUHU216DAVISVP2,2013-07-29 22:49:00,
2013-07-29 18:54:00,72.3,69.2,30.00,ENE,64,1.0,5.0,90,0.00,,,0.19,76.0,WUHU216DAVISVP2,2013-07-29 22:54:00,
2013-07-29 18:59:00,72.1,69.0,30.00,NNE,26,1.0,5.0,90,0.00,,,0.19,90.0,WUHU216DAVISVP2,2013-07-29 22:59:00,
2013-07-29 19:04:00,72.0,68.2,30.00,SSE,168,0.0,5.0,88,0.00,,,0.19,76.0,WUHU216DAVISVP2,2013-07-29 23:04:00,
2013-07-29 19:09:00,71.7,68.9,30.00,East,91,0.0,3.0,91,0.00,,,0.19,63.0,WUHU216DAVISVP2,2013-07-29 23:09:00,
2013-07-29 19:14:00,71.2,68.8,30.00,East,91,1.0,3.0,92,0.00,,,0.19,67.0,WUHU216DAVISVP2,2013-07-29 23:14:00,
2013-07-29 19:19:00,71.1,68.7,30.00,East,91,0.0,2.0,92,0.00,,,0.19,51.0,WUHU216DAVISVP2,2013-07-29 23:19:00,
2013-07-29 19:25:00,70.9,68.8,30.00,East,91,2.0,2.0,93,0.00,,,0.19,63.0,WUHU216DAVISVP2,2013-07-29 23:25:00,
2013-07-29 19:30:00,70.7,68.6,30.00,East,91,1.0,2.0,93,0.00,,,0.19,60.0,WUHU216DAVISVP2,2013-07-29 23:30:00,
2013-07-29 19:35:00,71.0,68.2,30.01,ENE,64,1.0,2.0,91,0.00,,,0.19,39.0,WUHU216DAVISVP2,2013-07-29 23:35:00,
2013-07-29 19:40:00,70.9,67.8,30.01,SSE,159,1.0,4.0,90,0.00,,,0.19,19.0,WUHU216DAVISVP2,2013-07-29 23:40:00,
2013-07-29 19:45:00,70.5,67.4,30.01,South,172,1.0,4.0,90,0.00,,,0.19,14.0,WUHU216DAVISVP2,2013-07-29 23:45:00,
2013-07-29 19:50:00,70.1,67.3,30.01,SSW,194,0.0,4.0,91,0.00,,,0.19,12.0,WUHU216DAVISVP2,2013-07-29 23:50:00,
2013-07-29 19:55:00,69.7,66.9,30.01,SSE,150,0.0,4.0,91,0.00,,,0.19,7.0,WUHU216DAVISVP2,2013-07-29 23:55:00,
2013-07-29 20:01:00,69.4,66.9,30.02,SSE,161,1.0,4.0,92,0.00,,,0.19,5.0,WUHU216DAVISVP2,2013-07-30 00:01:00,
2013-07-29 20:06:00,69.1,66.6,30.02,SSE,161,1.0,3.0,92,0.00,,,0.19,0.0,WUHU216DAVISVP2,2013-07-30 00:06:00,
2013-07-29 20:12:00,68.7,66.9,30.02,SSE,161,0.0,3.0,94,0.00,,,0.19,0.0,WUHU216DAVISVP2,2013-07-30 00:12:00,
2013-07-29 20:17:00,68.4,66.6,30.02,SSE,161,0.0,2.0,94,0.00,,,0.19,0.0,WUHU216DAVISVP2,2013-07-30 00:17:00,
2013-07-29 20:22:00,68.1,66.3,30.02,SSE,164,0.0,2.0,94,0.00,,,0.19,0.0,WUHU216DAVISVP2,2013-07-30 00:22:00,
2013-07-29 20:27:00,67.9,65.8,30.02,SSE,164,1.0,2.0,93,0.00,,,0.19,0.0,WUHU216DAVISVP2,2013-07-30 00:27:00,
2013-07-29 20:32:00,67.6,65.8,30.03,SSE,164,0.0,2.0,94,0.00,,,0.19,0.0,WUHU216DAVISVP2,2013-07-30 00:32:00,
2013-07-29 20:37:00,67.3,65.5,30.03,SSE,164,0.0,2.0,94,0.00,,,0.19,0.0,WUHU216DAVISVP2,2013-07-30 00:37:00,
2013-07-29 20:43:00,67.2,65.4,30.03,SSE,164,1.0,2.0,94,0.00,,,0.19,0.0,WUHU216DAVISVP2,2013-07-30 00:43:00,
2013-07-29 20:48:00,67.0,65.2,30.03,SSE,164,1.0,2.0,94,0.00,,,0.19,0.0,WUHU216DAVISVP2,2013-07-30 00:48:00,
2013-07-29 20:53:00,66.8,65.0,30.03,SSE,164,0.0,2.0,94,0.00,,,0.19,0.0,WUHU216DAVISVP2,2013-07-30 00:53:00,
2013-07-29 20:58:00,66.7,65.2,30.04,SSE,164,0.0,2.0,95,0.00,,,0.19,0.0,WUHU216DAVISVP2,2013-07-30 00:58:00,
2013-07-29 21:03:00,66.6,65.1,30.04,SSE,164,0.0,2.0,95,0.00,,,0.19,0.0,WUHU216DAVISVP2,2013-07-30 01:03:00,
2013-07-29 21:08:00,66.5,65.0,30.04,SSE,164,0.0,1.0,95,0.00,,,0.19,0.0,WUHU216DAVISVP2,2013-07-30 01:08:00,
2013-07-29 21:13:00,66.3,64.8,30.04,SSE,164,1.0,1.0,95,0.00,,,0.19,0.0,WUHU216DAVISVP2,2013-07-30 01:13:00,
2013-07-29 21:18:00,66.1,64.6,30.05,SSE,164,0.0,1.0,95,0.00,,,0.19,0.0,WUHU216DAVISVP2,2013-07-30 01:18:00,
2013-07-29 21:23:00,65.9,64.4,30.05,SSE,164,0.0,1.0,95,0.00,,,0.19,0.0,WUHU216DAVISVP2,2013-07-30 01:23:00,
2013-07-29 21:29:00,65.9,64.7,30.05,SSE,164,0.0,1.0,96,0.00,,,0.19,0.0,WUHU216DAVISVP2,2013-07-30 01:29:00,
2013-07-29 21:34:00,65.9,64.7,30.05,SSE,164,0.0,0.0,96,0.00,,,0.19,0.0,WUHU216DAVISVP2,2013-07-30 01:34:00,
2013-07-29 21:39:00,65.8,64.6,30.05,SSE,164,0.0,0.0,96,0.00,,,0.19,0.0,WUHU216DAVISVP2,2013-07-30 01:39:00,
2013-07-29 21:44:00,65.7,64.5,30.05,SSE,164,0.0,0.0,96,0.00,,,0.19,0.0,WUHU216DAVISVP2,2013-07-30 01:44:00,
2013-07-29 21:49:00,65.5,64.3,30.05,SSE,164,0.0,0.0,96,0.00,,,0.19,0.0,WUHU216DAVISVP2,2013-07-30 01:49:00,
2013-07-29 21:54:00,65.4,64.2,30.05,SSE,164,0.0,1.0,96,0.00,,,0.19,0.0,WUHU216DAVISVP2,2013-07-30 01:54:00,
2013-07-29 21:59:00,65.2,64.0,30.05,SSE,164,0.0,1.0,96,0.00,,,0.19,0.0,WUHU216DAVISVP2,2013-07-30 01:59:00,
2013-07-29 22:04:00,65.1,63.9,30.05,SSE,164,0.0,1.0,96,0.00,,,0.19,0.0,WUHU216DAVISVP2,2013-07-30 02:04:00,
2013-07-29 22:09:00,64.9,63.7,30.05,SSE,164,0.0,1.0,96,0.00,,,0.19,0.0,WUHU216DAVISVP2,2013-07-30 02:09:00,
2013-07-29 22:14:00,64.7,63.8,30.05,SSE,164,0.0,1.0,97,0.00,,,0.19,0.0,WUHU216DAVISVP2,2013-07-30 02:14:00,
2013-07-29 22:20:00,64.6,63.7,30.05,SSE,164,0.0,0.0,97,0.00,,,0.19,0.0,WUHU216DAVISVP2,2013-07-30 02:20:00,
2013-07-29 22:25:00,64.4,63.5,30.05,SSE,164,0.0,0.0,97,0.00,,,0.19,0.0,WUHU216DAVISVP2,2013-07-30 02:25:00,
2013-07-29 22:30:00,64.3,63.4,30.05,SSE,164,0.0,0.0,97,0.00,,,0.19,0.0,WUHU216DAVISVP2,2013-07-30 02:30:00,
2013-07-29 22:35:00,64.1,63.2,30.05,SSE,164,0.0,0.0,97,0.00,,,0.19,0.0,WUHU216DAVISVP2,2013-07-30 02:35:00,
2013-07-29 22:41:00,63.8,62.9,30.05,SSE,164,0.0,0.0,97,0.00,,,0.19,0.0,WUHU216DAVISVP2,2013-07-30 02:41:00,
2013-07-29 22:47:00,63.6,62.7,30.05,SSE,164,0.0,0.0,97,0.00,,,0.19,0.0,WUHU216DAVISVP2,2013-07-30 02:47:00,
2013-07-29 22:52:00,63.5,62.6,30.05,SSE,164,0.0,0.0,97,0.00,,,0.19,0.0,WUHU216DAVISVP2,2013-07-30 02:52:00,
2013-07-29 22:57:00,63.3,62.4,30.05,SSE,164,0.0,0.0,97,0.00,,,0.19,0.0,WUHU216DAVISVP2,2013-07-30 02:57:00,
2013-07-29 23:02:00,63.2,62.3,30.05,SSE,164,0.0,0.0,97,0.00,,,0.19,0.0,WUHU216DAVISVP2,2013-07-30 03:02:00,
2013-07-29 23:08:00,63.0,62.1,30.05,SSE,164,0.0,1.0,97,0.00,,,0.19,0.0,WUHU216DAVISVP2,2013-07-30 03:08:00,
2013-07-29 23:13:00,63.1,62.2,30.05,SSE,164,0.0,1.0,97,0.00,,,0.19,0.0,WUHU216DAVISVP2,2013-07-30 03:13:00,
2013-07-29 23:19:00,63.3,62.4,30.05,SSE,164,0.0,1.0,97,0.00,,,0.19,0.0,WUHU216DAVISVP2,2013-07-30 03:19:00,
2013-07-29 23:24:00,63.5,62.9,30.05,SSE,164,0.0,1.0,98,0.00,,,0.19,0.0,WUHU216DAVISVP2,2013-07-30 03:24:00,
2013-07-29 23:29:00,63.6,63.0,30.05,SSE,164,0.0,0.0,98,0.00,,,0.19,0.0,WUHU216DAVISVP2,2013-07-30 03:29:00,
2013-07-29 23:34:00,63.5,62.9,30.05,SSE,164,0.0,0.0,98,0.00,,,0.19,0.0,WUHU216DAVISVP2,2013-07-30 03:34:00,
2013-07-29 23:39:00,63.4,62.8,30.05,SSE,164,0.0,0.0,98,0.00,,,0.19,0.0,WUHU216DAVISVP2,2013-07-30 03:39:00,
2013-07-29 23:44:00,63.4,62.8,30.05,SSE,164,0.0,0.0,98,0.00,,,0.19,0.0,WUHU216DAVISVP2,2013-07-30 03:44:00,
2013-07-29 23:49:00,63.3,62.7,30.05,SSE,164,0.0,0.0,98,0.00,,,0.19,0.0,WUHU216DAVISVP2,2013-07-30 03:49:00,
2013-07-29 23:54:00,63.2,62.3,30.06,SSE,164,0.0,0.0,97,0.00,,,0.19,0.0,WUHU216DAVISVP2,2013-07-30 03:54:00,
2013-07-29 23:59:00,63.3,62.7,30.06,SSE,164,0.0,0.0,98,0.00,,,0.19,0.0,WUHU216DAVISVP2,2013-07-30 03:59:00,